TimeCDT,TemperatureF,Dew PointF,Humidity,Sea Level PressureIn,VisibilityMPH,Wind Direction,Wind SpeedMPH,Gust SpeedMPH,PrecipitationIn,Events,Conditions,WindDirDegrees,DateUTC
12:15 AM,48.2,41.0,76,29.97,10.0,Calm,Calm,-,N/A,,Clear,0,2012-11-02 05:15:00
12:35 AM,48.2,42.8,82,29.96,10.0,Calm,Calm,-,N/A,,Clear,0,2012-11-02 05:35:00
1:15 AM,44.6,41.0,87,29.96,10.0,Calm,Calm,-,N/A,,Clear,0,2012-11-02 06:15:00
1:35 AM,44.6,41.0,87,29.96,10.0,Calm,Calm,-,N/A,,Clear,0,2012-11-02 06:35:00
1:55 AM,44.6,41.0,87,29.95,10.0,Calm,Calm,-,N/A,,Clear,0,2012-11-02 06:55:00
2:15 AM,44.6,41.0,87,29.95,10.0,Calm,Calm,-,N/A,,Clear,0,2012-11-02 07:15:00
2:55 AM,42.8,41.0,93,29.96,10.0,Calm,Calm,-,N/A,,Clear,0,2012-11-02 07:55:00
3:15 AM,44.6,41.0,87,29.95,10.0,Calm,Calm,-,N/A,,Clear,0,2012-11-02 08:15:00
3:35 AM,46.4,41.0,81,29.95,10.0,ENE,3.5,-,N/A,,Clear,60,2012-11-02 08:35:00
3:55 AM,44.6,41.0,87,29.95,10.0,NE,3.5,-,N/A,,Clear,50,2012-11-02 08:55:00
4:15 AM,44.6,41.0,87,29.95,10.0,NE,3.5,-,N/A,,Clear,40,2012-11-02 09:15:00
4:35 AM,44.6,41.0,87,29.95,10.0,Calm,Calm,-,N/A,,Clear,0,2012-11-02 09:35:00
4:55 AM,44.6,41.0,87,29.95,10.0,NNE,3.5,-,N/A,,Clear,30,2012-11-02 09:55:00
5:15 AM,44.6,42.8,93,29.94,10.0,NE,3.5,-,N/A,,Clear,40,2012-11-02 10:15:00
5:35 AM,44.6,41.0,87,29.94,10.0,Calm,Calm,-,N/A,,Clear,0,2012-11-02 10:35:00
6:15 AM,44.6,42.8,93,29.93,10.0,NE,4.6,-,N/A,,Clear,40,2012-11-02 11:15:00
6:55 AM,44.6,42.8,93,29.93,7.0,NE,3.5,-,N/A,,Clear,40,2012-11-02 11:55:00
7:15 AM,44.6,42.8,93,29.94,7.0,Calm,Calm,-,N/A,,Clear,0,2012-11-02 12:15:00
7:35 AM,44.6,41.0,87,29.95,10.0,Calm,Calm,-,N/A,,Clear,0,2012-11-02 12:35:00
7:55 AM,44.6,42.8,93,29.94,10.0,Calm,Calm,-,N/A,,Clear,0,2012-11-02 12:55:00
8:15 AM,44.6,42.8,93,29.94,10.0,Calm,Calm,-,N/A,,Clear,0,2012-11-02 13:15:00
8:35 AM,48.2,44.6,87,29.95,10.0,Calm,Calm,-,N/A,,Clear,0,2012-11-02 13:35:00
9:15 AM,51.8,46.4,82,29.95,10.0,SSE,3.5,-,N/A,,Clear,150,2012-11-02 14:15:00
9:35 AM,55.4,48.2,77,29.96,10.0,South,4.6,-,N/A,,Clear,180,2012-11-02 14:35:00
9:55 AM,59.0,50.0,72,29.96,10.0,South,8.1,-,N/A,,Clear,180,2012-11-02 14:55:00
10:15 AM,60.8,50.0,68,29.96,10.0,South,5.8,-,N/A,,Clear,190,2012-11-02 15:15:00
10:35 AM,62.6,50.0,63,29.96,10.0,South,8.1,-,N/A,,Clear,190,2012-11-02 15:35:00
10:55 AM,64.4,50.0,59,29.95,10.0,South,6.9,-,N/A,,Clear,190,2012-11-02 15:55:00
11:15 AM,66.2,50.0,56,29.96,10.0,SSW,8.1,-,N/A,,Clear,200,2012-11-02 16:15:00
11:35 AM,69.8,50.0,49,29.95,10.0,SSW,8.1,-,N/A,,Clear,200,2012-11-02 16:35:00
11:55 AM,71.6,50.0,46,29.95,10.0,SSW,8.1,-,N/A,,Clear,200,2012-11-02 16:55:00
12:15 PM,71.6,51.8,50,29.95,10.0,South,9.2,-,N/A,,Clear,190,2012-11-02 17:15:00
12:35 PM,75.2,51.8,44,29.93,10.0,SSW,10.4,-,N/A,,Clear,210,2012-11-02 17:35:00
12:55 PM,77.0,51.8,41,29.93,10.0,SSW,8.1,-,N/A,,Clear,210,2012-11-02 17:55:00
1:15 PM,78.8,51.8,39,29.92,10.0,SW,10.4,-,N/A,,Clear,220,2012-11-02 18:15:00
1:35 PM,78.8,51.8,39,29.91,10.0,SSW,10.4,16.1,N/A,,Clear,210,2012-11-02 18:35:00
1:55 PM,80.6,51.8,37,29.90,10.0,SSW,8.1,-,N/A,,Clear,200,2012-11-02 18:55:00
2:15 PM,80.6,51.8,37,29.89,10.0,South,10.4,-,N/A,,Clear,190,2012-11-02 19:15:00
2:35 PM,80.6,51.8,37,29.88,10.0,South,15.0,-,N/A,,Clear,170,2012-11-02 19:35:00
2:55 PM,80.6,51.8,37,29.87,10.0,South,10.4,-,N/A,,Clear,170,2012-11-02 19:55:00
3:15 PM,80.6,51.8,37,29.87,10.0,South,10.4,-,N/A,,Clear,180,2012-11-02 20:15:00
3:35 PM,82.4,51.8,35,29.86,10.0,South,13.8,18.4,N/A,,Clear,180,2012-11-02 20:35:00
3:55 PM,84.2,50.0,30,29.85,10.0,SSW,17.3,21.9,N/A,,Clear,200,2012-11-02 20:55:00
4:15 PM,84.2,51.8,33,29.85,10.0,SSW,18.4,23.0,N/A,,Clear,200,2012-11-02 21:15:00
4:35 PM,84.2,46.4,27,29.85,10.0,South,20.7,26.5,N/A,,Clear,190,2012-11-02 21:35:00
4:55 PM,82.4,46.4,28,29.85,10.0,SSW,18.4,25.3,N/A,,Clear,200,2012-11-02 21:55:00
5:15 PM,82.4,46.4,28,29.84,10.0,SSW,17.3,23.0,N/A,,Clear,200,2012-11-02 22:15:00
5:35 PM,82.4,46.4,28,29.84,10.0,SSW,16.1,23.0,N/A,,Clear,200,2012-11-02 22:35:00
5:55 PM,80.6,46.4,30,29.84,10.0,SSW,15.0,20.7,N/A,,Clear,200,2012-11-02 22:55:00
6:15 PM,80.6,46.4,30,29.84,10.0,South,11.5,18.4,N/A,,Clear,180,2012-11-02 23:15:00
6:35 PM,77.0,51.8,41,29.84,10.0,South,11.5,-,N/A,,Clear,170,2012-11-02 23:35:00
6:55 PM,73.4,53.6,50,29.85,10.0,South,10.4,-,N/A,,Clear,170,2012-11-02 23:55:00
7:15 PM,73.4,51.8,47,29.86,10.0,South,9.2,-,N/A,,Clear,170,2012-11-03 00:15:00
7:35 PM,71.6,51.8,50,29.86,10.0,South,9.2,-,N/A,,Clear,170,2012-11-03 00:35:00
8:15 PM,66.2,51.8,60,29.88,10.0,Calm,Calm,-,N/A,,Clear,0,2012-11-03 01:15:00
8:35 PM,64.4,51.8,64,29.88,10.0,SSE,4.6,-,N/A,,Clear,160,2012-11-03 01:35:00
8:55 PM,62.6,50.0,63,29.88,10.0,SSE,8.1,-,N/A,,Clear,160,2012-11-03 01:55:00
9:15 PM,64.4,50.0,59,29.87,10.0,South,8.1,-,N/A,,Clear,170,2012-11-03 02:15:00
9:35 PM,66.2,50.0,56,29.88,10.0,South,8.1,-,N/A,,Clear,170,2012-11-03 02:35:00
9:55 PM,66.2,50.0,56,29.88,10.0,South,6.9,-,N/A,,Clear,170,2012-11-03 02:55:00
10:15 PM,68.0,50.0,52,29.89,10.0,South,9.2,-,N/A,,Clear,180,2012-11-03 03:15:00
10:35 PM,68.0,48.2,49,29.90,10.0,South,9.2,-,N/A,,Clear,180,2012-11-03 03:35:00
11:15 PM,66.2,50.0,56,29.90,10.0,South,9.2,-,N/A,,Clear,180,2012-11-03 04:15:00
11:35 PM,64.4,50.0,59,29.91,10.0,South,9.2,-,N/A,,Clear,180,2012-11-03 04:35:00
11:55 PM,64.4,50.0,59,29.91,10.0,South,10.4,-,N/A,,Clear,180,2012-11-03 04:55:00